{"data":{"norad_id":64930,"intl_designator":"2025-157AC","name":"STARLINK-34220","alt_names":[],"object_type":"PAYLOAD","status":"ACTIVE","operator":null,"country":"US","launch_date":"2025-07-26","launch_site_code":"AFETR","launch_vehicle":null,"mission":null,"orbit_class":"UNKNOWN","rcs_meters":null,"size_class":null,"mass_kg":null,"dimensions":null,"purposes":["comms"],"wikipedia_slug":null,"has_3d_model":false,"image_url":null,"decayed_at":null,"tle_current":{"epoch":"2026-05-25T00:06:50.558976Z","epoch_age_seconds":85074,"freshness":"FRESH","line1":"1 64930U 25157AC  26145.00475184  .00018534  00000+0  60730-3 0  9998","line2":"2 64930  53.1597 350.7774 0000810  81.9870 278.1223 15.31711282 47703","mean_motion":15.31711282,"eccentricity":8.1e-5,"inclination_deg":53.1597,"raan_deg":350.7774,"arg_perigee_deg":81.987,"mean_anomaly_deg":278.1223,"bstar":0.0006073,"rev_number":4770,"period_min":94.012495495871,"perigee_km":470.15160806463,"apogee_km":471.26112068966,"semimajor_km":6848.8433643771,"source":"CELESTRAK","updated_at":"2026-05-25T13:38:20.627051Z"}}}